Location: Wien
(48.2082°N, 16.3738°E)
Time: 13:23:15
(UTC+02:00)

Tiros 1 despin weight - Pass Details

Date: 13 September 2024
Orbit: 573 x 615 km, 48.2° (Epoch: 06 October)

Event Time Altitude Azimuth Distance (km) Brightness Sun altitude
Rises 08:49:35 0° 280° (W) 2,892 ? 22.2°
Reaches altitude 10° 08:51:55 10° 279° (W) 1,985 ? 22.5°
Maximum altitude 08:56:28 75° 194° (SSW) 643 ? 23.2°
Drops below altitude 10° 09:00:59 10° 110° (ESE) 1,967 ? 23.9°
Sets 09:03:17 0° 109° (ESE) 2,864 ? 24.3°
